Location: Nianha
(10.8000°N, 4.6333°W)
Time: 10:42:58
(UTC+00:00)

Hubble Space Telescope - Pass Details

Date: 14 November 2019
Orbit: 536 x 540 km, 28.5° (Epoch: 24 January)

Event Time Altitude Azimuth Distance (km) Brightness Sun altitude
Exits shadow 05:15:43 18° 248° (WSW) 1,352 2.3 -14.4°
Maximum altitude 05:17:32 24° 211° (SSW) 1,127 2.3 -14.0°
Drops below altitude 10° 05:20:54 10° 156° (SSE) 1,779 4.0 -13.2°
Sets 05:23:28 0° 142° (SE) 2,669 5.3 -12.6°
